When you browse on this site, cookies collect data to enhance your experience and personalize the content and advertising you see.
Visit our Privacy Policy to learn more. By continuing to use the site, you agree to this use of cookies and data.
  • In France
  • List of Countries
  • For 7 days
  • Water Temperature
  • Weather Map
  • Weather Widgets
  • user-avatar
    Login

    Hourly Weather Kadugli

    Today, 22 August, Thursday

    Time Temperature Precipitation Wind Pressure Humidity
    00:00 +23°C° 0.2 mm 0 mps 711 mmHg 90%
    01:00 +23°C° 0.2 mm 0 mps 710 mmHg 91%
    02:00 +22°C° 0 mm 0 mps 710 mmHg 91%
    03:00 +22°C° 0.8 mm 0 mps 710 mmHg 92%
    04:00 +22°C° 0.8 mm 0 mps 710 mmHg 92%
    05:00 +22°C° 0.8 mm 0 mps 711 mmHg 93%
    06:00 +24°C° 2.1 mm 1 mps 711 mmHg 92%
    07:00 +25°C° 2.1 mm 2 mps 711 mmHg 90%
    08:00 +23°C° 0 mm 5 mps 711 mmHg 92%
    09:00 +23°C° 2 mm 4 mps 712 mmHg 92%
    10:00 +23°C° 2 mm 4 mps 712 mmHg 92%
    11:00 +23°C° 2 mm 4 mps 712 mmHg 91%
    12:00 +26°C° 0.1 mm 3 mps 711 mmHg 86%
    13:00 +27°C° 0.1 mm 3 mps 710 mmHg 81%
    14:00 +28°C° 0.1 mm 2 mps 710 mmHg 75%
    15:00 +28°C° 0 mm 2 mps 710 mmHg 76%
    16:00 +28°C° 0 mm 2 mps 710 mmHg 77%
    17:00 +27°C° 0 mm 2 mps 710 mmHg 77%
    18:00 +26°C° 0 mm 2 mps 710 mmHg 80%
    19:00 +26°C° 0 mm 2 mps 710 mmHg 82%
    20:00 +25°C° 0 mm 1 mps 711 mmHg 85%
    21:00 +24°C° 0 mm 1 mps 711 mmHg 86%
    22:00 +24°C° 0 mm 1 mps 711 mmHg 87%
    23:00 +24°C° 0 mm 2 mps 711 mmHg 89%

    Tomorrow, 23 August, Friday

    Time Temperature Precipitation Wind Pressure Humidity
    00:00 +24°C° 0 mm 1 mps 711 mmHg 89%
    01:00 +24°C° 0 mm 1 mps 711 mmHg 89%
    02:00 +23°C° 0 mm 1 mps 711 mmHg 90%
    03:00 +23°C° 0 mm 1 mps 711 mmHg 90%
    04:00 +23°C° 0 mm 1 mps 711 mmHg 90%
    05:00 +23°C° 0 mm 1 mps 711 mmHg 91%
    06:00 +24°C° 0 mm 1 mps 711 mmHg 89%
    07:00 +24°C° 0 mm 2 mps 712 mmHg 88%
    08:00 +25°C° 0 mm 2 mps 713 mmHg 87%
    09:00 +26°C° 0.5 mm 2 mps 713 mmHg 83%
    10:00 +27°C° 0.5 mm 2 mps 713 mmHg 80%
    11:00 +28°C° 0.5 mm 2 mps 713 mmHg 77%
    12:00 +28°C° 0.1 mm 2 mps 713 mmHg 78%
    13:00 +27°C° 0.1 mm 2 mps 712 mmHg 79%
    14:00 +27°C° 0.1 mm 2 mps 711 mmHg 80%
    15:00 +27°C° 0.3 mm 2 mps 711 mmHg 80%
    16:00 +27°C° 0.3 mm 2 mps 711 mmHg 80%
    17:00 +27°C° 0.3 mm 2 mps 711 mmHg 81%
    18:00 +26°C° 0.4 mm 2 mps 711 mmHg 84%
    19:00 +25°C° 0.4 mm 2 mps 711 mmHg 88%
    20:00 +24°C° 0.4 mm 2 mps 712 mmHg 92%
    21:00 +24°C° 0 mm 2 mps 711 mmHg 93%
    22:00 +24°C° 0 mm 1 mps 711 mmHg 94%
    23:00 +23°C° 0 mm 1 mps 711 mmHg 95%

    Day after tomorrow, 24 August, Saturday

    Time Temperature Precipitation Wind Pressure Humidity
    00:00 +23°C° 0 mm 1 mps 711 mmHg 94%
    01:00 +22°C° 0 mm 0 mps 711 mmHg 94%
    02:00 +22°C° 0 mm 0 mps 711 mmHg 93%
    03:00 +24°C° 0.6 mm 1 mps 711 mmHg 93%
    04:00 +23°C° 0.6 mm 1 mps 711 mmHg 94%
    05:00 +23°C° 0.6 mm 1 mps 711 mmHg 94%
    06:00 +23°C° 1.3 mm 2 mps 712 mmHg 93%
    07:00 +22°C° 1.3 mm 3 mps 713 mmHg 93%
    08:00 +24°C° 1.3 mm 3 mps 713 mmHg 92%
    09:00 +24°C° 0.9 mm 3 mps 713 mmHg 89%
    10:00 +25°C° 0.9 mm 3 mps 714 mmHg 87%
    11:00 +25°C° 0.9 mm 2 mps 714 mmHg 85%
    12:00 +27°C° 0 mm 2 mps 713 mmHg 80%
    13:00 +28°C° 0 mm 2 mps 712 mmHg 76%
    14:00 +29°C° 0 mm 3 mps 712 mmHg 72%
    15:00 +29°C° 0 mm 2 mps 711 mmHg 71%
    16:00 +29°C° 0 mm 2 mps 711 mmHg 70%
    17:00 +29°C° 0 mm 1 mps 711 mmHg 69%
    18:00 +28°C° 0 mm 1 mps 711 mmHg 74%
    19:00 +26°C° 0 mm 1 mps 711 mmHg 78%
    20:00 +23°C° 0 mm 0 mps 712 mmHg 82%
    21:00 +25°C° 0 mm 1 mps 712 mmHg 84%
    22:00 +24°C° 0 mm 1 mps 712 mmHg 87%
    23:00 +24°C° 0 mm 1 mps 712 mmHg 89%

    25 August, Sunday

    Time Temperature Precipitation Wind Pressure Humidity
    00:00 +23°C° 0.4 mm 1 mps 712 mmHg 91%
    01:00 +21°C° 0.4 mm 0 mps 711 mmHg 92%
    02:00 +21°C° 0.4 mm 0 mps 711 mmHg 94%
    03:00 +21°C° 0 mm 0 mps 711 mmHg 94%
    04:00 +21°C° 0 mm 0 mps 711 mmHg 93%
    05:00 +21°C° 0 mm 0 mps 711 mmHg 93%
    06:00 +24°C° 0 mm 1 mps 712 mmHg 91%
    07:00 +25°C° 0 mm 1 mps 712 mmHg 89%
    08:00 +26°C° 0 mm 1 mps 713 mmHg 87%
    09:00 +27°C° 0.3 mm 1 mps 713 mmHg 80%
    10:00 +29°C° 0.3 mm 2 mps 713 mmHg 74%
    11:00 +30°C° 0.3 mm 2 mps 713 mmHg 67%
    12:00 +31°C° 0 mm 2 mps 712 mmHg 63%
    13:00 +32°C° 0 mm 1 mps 711 mmHg 58%
    14:00 +33°C° 0 mm 1 mps 711 mmHg 54%
    15:00 +32°C° 0.4 mm 1 mps 710 mmHg 58%
    16:00 +32°C° 0.4 mm 1 mps 710 mmHg 63%
    17:00 +29°C° 0.4 mm 0 mps 709 mmHg 67%
    18:00 +28°C° 0.1 mm 0 mps 710 mmHg 69%
    19:00 +26°C° 0.1 mm 0 mps 710 mmHg 71%
    20:00 +24°C° 0.1 mm 0 mps 710 mmHg 74%
    21:00 +24°C° 0.5 mm 0 mps 711 mmHg 76%
    22:00 +23°C° 0.5 mm 0 mps 711 mmHg 79%
    23:00 +23°C° 0.5 mm 0 mps 711 mmHg 81%

    26 August, Monday

    Time Temperature Precipitation Wind Pressure Humidity
    00:00 +25°C° 0.6 mm 1 mps 711 mmHg 83%
    01:00 +24°C° 0.6 mm 1 mps 711 mmHg 85%
    02:00 +24°C° 0.6 mm 1 mps 710 mmHg 87%
    03:00 +24°C° 0.9 mm 1 mps 710 mmHg 90%
    04:00 +23°C° 0.9 mm 1 mps 711 mmHg 92%
    05:00 +23°C° 0.9 mm 1 mps 711 mmHg 95%
    06:00 +24°C° 0.8 mm 1 mps 711 mmHg 92%
    07:00 +25°C° 0.8 mm 2 mps 712 mmHg 89%
    08:00 +26°C° 0.8 mm 2 mps 713 mmHg 86%
    09:00 +27°C° 0.6 mm 2 mps 713 mmHg 81%
    10:00 +28°C° 0.6 mm 3 mps 713 mmHg 76%
    11:00 +29°C° 0.6 mm 3 mps 713 mmHg 71%
    12:00 +29°C° 1.8 mm 2 mps 712 mmHg 71%
    13:00 +29°C° 1.8 mm 2 mps 711 mmHg 71%
    14:00 +29°C° 1.8 mm 1 mps 710 mmHg 70%
    15:00 +29°C° 0.1 mm 1 mps 710 mmHg 71%
    16:00 +29°C° 0.1 mm 1 mps 710 mmHg 71%
    17:00 +29°C° 0.1 mm 1 mps 710 mmHg 72%
    18:00 +27°C° 0.5 mm 1 mps 710 mmHg 76%
    19:00 +26°C° 0.5 mm 1 mps 711 mmHg 81%
    20:00 +23°C° 0.5 mm 0 mps 711 mmHg 86%
    21:00 +24°C° 0.3 mm 1 mps 711 mmHg 86%
    22:00 +24°C° 0.3 mm 1 mps 711 mmHg 87%
    23:00 +24°C° 0.3 mm 1 mps 711 mmHg 87%

    27 August, Tuesday

    Time Temperature Precipitation Wind Pressure Humidity
    00:00 +24°C° 0 mm 1 mps 711 mmHg 88%
    01:00 +24°C° 0 mm 1 mps 711 mmHg 88%
    02:00 +23°C° 0 mm 1 mps 711 mmHg 89%
    03:00 +23°C° 0 mm 1 mps 711 mmHg 88%
    04:00 +23°C° 0 mm 1 mps 711 mmHg 88%
    05:00 +23°C° 0 mm 1 mps 712 mmHg 87%
    06:00 +24°C° 0.2 mm 1 mps 712 mmHg 87%
    07:00 +24°C° 0.2 mm 1 mps 713 mmHg 87%
    08:00 +24°C° 0.2 mm 1 mps 713 mmHg 86%
    09:00 +25°C° 0.3 mm 1 mps 713 mmHg 84%
    10:00 +26°C° 0.3 mm 2 mps 713 mmHg 82%
    11:00 +27°C° 0.3 mm 2 mps 713 mmHg 79%
    12:00 +27°C° 0 mm 2 mps 712 mmHg 76%
    13:00 +28°C° 0 mm 2 mps 712 mmHg 72%
    14:00 +29°C° 0 mm 3 mps 711 mmHg 68%
    15:00 +29°C° 0.2 mm 3 mps 711 mmHg 70%
    16:00 +28°C° 0.2 mm 3 mps 711 mmHg 72%
    17:00 +28°C° 0.2 mm 3 mps 710 mmHg 74%
    18:00 +27°C° 0 mm 2 mps 711 mmHg 77%
    19:00 +26°C° 0 mm 2 mps 711 mmHg 81%
    20:00 +25°C° 0 mm 1 mps 711 mmHg 84%
    21:00 +25°C° 0 mm 1 mps 711 mmHg 83%
    22:00 +23°C° 0 mm 0 mps 712 mmHg 82%
    23:00 +23°C° 0 mm 0 mps 712 mmHg 81%
    Show more